Regional Weather Roundup
Issued by NWS

Home | Current Version | Previous Version | Text Only | Print | Product List | Glossary On
Versions: 1 2 3 4 5 6 7 8 9 10 11 12 13 14 15 16 17 18 19 20 21 22 23 24 25 26 27 28 29 30 31 32 33 34 35 36 37 38 39 40 41 42 43 44 45 46 47 48 49 50
000
ASUS45 KPSR 212010
RWRAZ

ARIZONA HOURLY REGIONAL WEATHER ROUNDUP
NATIONAL WEATHER SERVICE PHOENIX AZ
100 PM MST SAT JAN 21 2017

NOTE: FAIR INDICATES FEW OR NO CLOUDS BELOW 12,000 FEET WITH NO
SIGNIFICANT WEATHER AND/OR OBSTRUCTIONS TO VISIBILITY.

AZZ001>003-036-212100-
NORTHWEST ARIZONA

CITY           SKY/WX    TMP DP  RH WIND       PRES   REMARKS
BULLHEAD CITY  SUNNY     57  32  38 SE12      29.78F
KINGMAN        SUNNY     46  26  45 SW12      29.77R
$$

AZZ004>008-015-016-018-212100-
NORTH CENTRAL ARIZONA

CITY           SKY/WX    TMP DP  RH WIND       PRES   REMARKS
GRAND CANYON   CLOUDY    30  26  85 W12G17    29.67R WCI  20
WILLIAMS       MIX PCPN  28  25  86 W13G21    29.71R WCI  18
PRESCOTT       MOSUNNY   35  30  82 SW21      29.74R WCI  24
FLAGSTAFF      FLURRIES  29  21  72 W14G22    29.68R WCI  18
PAYSON         LGT RAIN  34  32  93 SW7       29.77R WCI  28
PAGE           PTSUNNY   44  23  43 W14G26    29.57R
$$

AZZ009>014-017-212100-
NORTHEAST ARIZONA

CITY           SKY/WX    TMP DP  RH WIND       PRES   REMARKS
WINSLOW        MOSUNNY   42  30  62 W26G36    29.64R
SAINT JOHNS    PTSUNNY   35  28  75 W28G36    29.62R WCI  22
SHOW LOW       LGT RAIN  28  23  80 SW25G32   29.65R WCI  14
$$

AZZ023-212100-
GREATER PHOENIX AREA

CITY           SKY/WX    TMP DP  RH WIND       PRES   REMARKS
PHOENIX        PTSUNNY   58  37  45 W16G29    29.80R
BUCKEYE        PTSUNNY   57  37  47 W18G28    29.83R
GLENDALE       PTSUNNY   57  36  44 SW21G29   29.82R
LUKE AFB       MOSUNNY   58  36  43 SW18      29.80R
DEER VALLEY    CLOUDY    55  37  50 W18G24    29.79R
SCOTTSDALE     CLOUDY    54  33  45 W12G21    29.81R
MESA-FALCON    MOSUNNY  N/A N/A N/A W23G29    29.78R
MESA-GATEWAY   PTSUNNY   55  36  47 W24G31    29.83R
CHANDLER       MOSUNNY   55  36  47 SW17G29   29.82R
$$

AZZ027-028-212100-
SOUTHWEST MARICOPA COUNTY AND PINAL COUNTY

CITY           SKY/WX    TMP DP  RH WIND       PRES   REMARKS
CASA GRANDE    MOSUNNY   56  38  50 W23G35    29.83R
GILA BEND      FAIR      57  38  48 W24G33    29.84S
$$

AZZ503-504-507>509-212100-
SOUTHEAST ARIZONA

CITY           SKY/WX    TMP DP  RH WIND       PRES   REMARKS
TUCSON         MOSUNNY   54  32  43 W26G37    29.85S
DAVIS-MONTHAN  MOSUNNY   53  34  48 W23G30    29.83R
RYAN FIELD     MOSUNNY   54  34  47 W23G32    29.86R
NOGALES        LGT RAIN  48  31  51 W20G33    29.86R
SIERRA VISTA   LGT RAIN  37  34  87 W26G33    29.84R WCI  26
DOUGLAS        PTSUNNY   50  33  52 W29G38    29.79S
SAFFORD        PTSUNNY   47  33  58 W25G38    29.73R
$$

AZZ020-021-025-026-031-212100-
SOUTHWEST ARIZONA

CITY           SKY/WX    TMP DP  RH WIND       PRES   REMARKS
YUMA           SUNNY     63  39  41 W18G25    29.88F
$$

CAZ031-033-041-043-047-048-061-212100-
SOUTHERN CALIFORNIA

CITY           SKY/WX    TMP DP  RH WIND       PRES   REMARKS
DOWNTOWN L.A.  SUNNY     62  44  51 VRB3      29.92R
L.A. AIRPORT   MOSUNNY   58  45  62 W23G30    29.94R
SAN DIEGO      PTSUNNY   59  47  64 W10       29.99F
BURBANK        SUNNY     56  34  43 W7        29.92R
ONTARIO        PTSUNNY   52  40  63 E3        29.94R
RIVERSIDE      CLOUDY    55  42  61 NW5       29.95R
PALM SPRINGS   MOSUNNY   61  33  35 N10       29.86S
EL CENTRO NAS  SUNNY     63  41  44 W26       29.88F
IMPERIAL       SUNNY     63  42  46 W21G28    29.86F
BLYTHE         SUNNY     62  34  35 W16       29.84S
NEEDLES        SUNNY     62  29  28 NW6       29.77F
$$

NVZ020-UTZ003-212100-
SOUTHERN NEVADA-UTAH

CITY           SKY/WX    TMP DP  RH WIND       PRES   REMARKS
LAS VEGAS      MOSUNNY   55  27  34 NW5       29.73S
SALT LAKE CITY CLOUDY    34  30  85 N6        29.59R FOG     WCI  29
$$

NMZ009-TXZ055-212100-
NEW MEXICO-WEST TEXAS

CITY           SKY/WX    TMP DP  RH WIND       PRES   REMARKS
ALBUQUERQUE    CLOUDY    45  26  47 W20G29    29.48F
EL PASO        LGT RAIN  46  33  60 W30G38    29.62F
$$


........................KEY........................
SKY/WX - SKY CONDITION/WEATHER
TMP    - TEMPERATURE IN FAHRENHEIT
DP     - DEW POINT IN FAHRENHEIT
RH     - RELATIVE HUMIDITY IN PERCENT
WIND   - DIRECTION AND SPEED IN MILES PER HOUR (MPH)
VRB    - VARIABLE WIND DIRECTION
PRES   - MEAN SEA LEVEL PRESSURE IN INCHES OF MERCURY
         F - FALLING PRESSURE   R - RISING PRESSURE
         S - STEADY PRESSURE
VSB    - VISIBILITY IN MILES
HX     - HEAT INDEX IN FAHRENHEIT
WCI    - WIND CHILL INDEX IN FAHRENHEIT
TC     - TEMPERATURE IN CELSIUS WHICH IS ALSO KNOWN AS
         TEMPERATURE IN CENTIGRADE
AFB    - AIR FORCE BASE
         LUKE AFB IS LUKE AIR FORCE BASE
         DAVIS-MONTHAN IS DAVIS-MONTHAN AIR FORCE BASE
NAS    - NAVAL AIR STATION
         EL CENTRO NAS IS EL CENTRO NAVAL AIR STATION
N/A    - NOT AVAILABLE




USA.gov is the U.S. government's official web portal to all federal, state and local government web resources and services.